Home > Weather > Honolulu > Past weeks

Flag for U.S.A. Weather for the Past 2 Weeks in Honolulu, Hawaii, U.S.A.

Now
76 °F

Passing clouds.


Feels Like: 78 °F
Forecast: 68 / 81 °F
Wind: 5 mph from North

Location: Honolulu International Airport

Current Time: Feb 12, 2016 at 9:30:28 PM

Latest Report: Feb 12, 2016 at 8:53 PM


Visibility: 10 mi

Pressure: 30.08 "Hg

Humidity: 69%

Dew point: 65 °F

Location of HonoluluLocation

Historic Weather in Honolulu — Graph

°F

Honolulu Temperature Yesterday

Maximum temperature yesterday: 85 °F (at 12:53 PM)
Minimum temperature yesterday: 67 °F (at 3:53 AM)
Average temperature yesterday: 75 °F

High & Low Weather Summary for the Past Weeks

 TemperatureHumidityPressure
High85 °F (Feb 11, 12:53 PM)94% (Feb 2, 4:07 AM)30.12 "Hg (Feb 2, 4:07 AM)
Low61 °F (Feb 8, 2:53 AM)35% (Feb 7, 2:53 PM)29.90 "Hg (Feb 6, 3:53 PM)
Average74 °F68%30.03 "Hg
* Reported Jan 28 7:53 PM — Feb 12 7:53 PM, Honolulu, Weather by CustomWeather, © 2016

Note: Actual official high and low records may vary slightly from our data, if they occured in-between our weather recording intervals... More about our weather records

Advertising

Honolulu Weather History for the Previous 24 Hours

 ConditionsComfort  
Time TempWeatherWind HumidityBarometerVisibility
7:53 PM
Fri, Feb 12
76 °FPassing clouds.6 mph69%30.06 "Hg10 mi
6:53 PM78 °FPartly cloudy.10 mph64%30.03 "Hg10 mi
5:53 PM79 °FScattered clouds.8 mph60%30.00 "Hg10 mi
4:53 PM80 °FScattered clouds.10 mph58%29.98 "Hg10 mi
3:53 PM80 °FScattered clouds.9 mph58%29.97 "Hg10 mi
2:53 PM81 °FScattered clouds.9 mph56%29.96 "Hg10 mi
1:53 PM81 °FScattered clouds.12 mph56%29.97 "Hg10 mi
12:53 PM82 °FScattered clouds.13 mph55%30.00 "Hg10 mi
12:04 PM82 °FPassing clouds.16 mph55%30.01 "Hg10 mi
10:53 AM83 °FScattered clouds.17 mph50%30.03 "Hg10 mi
9:53 AM80 °FBroken clouds.14 mph58%30.04 "Hg10 mi
8:53 AM78 °FScattered clouds.9 mph64%30.03 "Hg10 mi
7:53 AM74 °FScattered clouds.No wind74%30.02 "Hg10 mi
6:53 AM72 °FPassing clouds.No wind73%30.01 "Hg10 mi
5:53 AM72 °FPassing clouds.No wind76%29.99 "Hg10 mi
4:53 AM74 °FPassing clouds.7 mph71%29.98 "Hg10 mi
3:53 AM74 °FPassing clouds.8 mph74%29.99 "Hg10 mi
2:53 AM74 °FPartly cloudy.10 mph74%30.01 "Hg10 mi
1:53 AM74 °FPartly cloudy.9 mph74%30.02 "Hg10 mi
12:53 AM75 °FPassing clouds.13 mph71%30.03 "Hg10 mi
11:53 PM
Thu, Feb 11
76 °FPassing clouds.13 mph67%30.03 "Hg10 mi
10:53 PM75 °FPartly cloudy.8 mph69%30.04 "Hg10 mi
9:53 PM75 °FPassing clouds.9 mph66%30.04 "Hg10 mi
Weather by CustomWeather, © 2016

See weather overviewHow to use our weather pages